Tiempo cada hora Dabrowa

Hoy, 29 Noviembre, Domingo

Tiempo Temperatura Precipitaciones Viento Presión Humedad
00:00 -1°C° 0.3 mm 4 mps 749 mmHg 93%
01:00 -1°C° 0 mm 4 mps 749 mmHg 98%
02:00 -1°C° 0.4 mm 4 mps 749 mmHg 97%
03:00 -1°C° 0.4 mm 4 mps 749 mmHg 96%
04:00 -1°C° 0.4 mm 4 mps 748 mmHg 95%
05:00 -1°C° 0.1 mm 4 mps 748 mmHg 95%
06:00 -1°C° 0.1 mm 4 mps 748 mmHg 95%
07:00 0°C° 0 mm 3 mps 748 mmHg 95%
08:00 0°C° 0.1 mm 3 mps 749 mmHg 93%
09:00 0°C° 0.1 mm 3 mps 749 mmHg 92%
10:00 0°C° 0.1 mm 3 mps 749 mmHg 90%
11:00 0°C° 0.1 mm 3 mps 749 mmHg 86%
12:00 +1°C° 0.1 mm 2 mps 749 mmHg 82%
13:00 +2°C° 0.1 mm 2 mps 749 mmHg 77%
14:00 +1°C° 0.1 mm 2 mps 749 mmHg 78%
15:00 +1°C° 0.1 mm 2 mps 749 mmHg 78%
16:00 +1°C° 0.1 mm 2 mps 749 mmHg 79%
17:00 +1°C° 0 mm 2 mps 749 mmHg 81%
18:00 -1°C° 0 mm 2 mps 750 mmHg 83%
19:00 +1°C° 0 mm 1 mps 750 mmHg 86%
20:00 +1°C° 0 mm 1 mps 750 mmHg 86%
21:00 +1°C° 0 mm 1 mps 750 mmHg 87%
22:00 -1°C° 0 mm 0 mps 750 mmHg 87%
23:00 -1°C° 0 mm 0 mps 750 mmHg 87%

Mañana, 30 Noviembre, Lunes

Tiempo Temperatura Precipitaciones Viento Presión Humedad
00:00 0°C° 0 mm 1 mps 751 mmHg 88%
01:00 0°C° 0 mm 1 mps 751 mmHg 88%
02:00 0°C° 0 mm 1 mps 751 mmHg 88%
03:00 0°C° 0 mm 1 mps 751 mmHg 88%
04:00 0°C° 0 mm 1 mps 751 mmHg 89%
05:00 0°C° 0 mm 1 mps 751 mmHg 88%
06:00 -1°C° 0 mm 1 mps 751 mmHg 87%
07:00 -1°C° 0 mm 1 mps 751 mmHg 85%
08:00 0°C° 0 mm 1 mps 752 mmHg 81%
09:00 -2°C° 0 mm 2 mps 752 mmHg 76%
10:00 -1°C° 0 mm 2 mps 752 mmHg 72%
11:00 -1°C° 0 mm 2 mps 752 mmHg 71%
12:00 +1°C° 0 mm 2 mps 752 mmHg 71%
13:00 0°C° 0 mm 3 mps 752 mmHg 70%
14:00 +1°C° 0 mm 2 mps 752 mmHg 76%
15:00 -1°C° 0 mm 2 mps 751 mmHg 83%
16:00 -1°C° 0 mm 2 mps 751 mmHg 89%
17:00 -1°C° 0 mm 2 mps 751 mmHg 90%
18:00 -1°C° 0 mm 2 mps 751 mmHg 91%
19:00 -1°C° 0 mm 3 mps 751 mmHg 91%
20:00 -1°C° 0 mm 3 mps 751 mmHg 90%
21:00 -1°C° 0 mm 3 mps 751 mmHg 88%
22:00 -1°C° 0 mm 3 mps 751 mmHg 86%
23:00 -1°C° 0 mm 3 mps 751 mmHg 85%

Pasado mañana, 1 Diciembre, Martes

Tiempo Temperatura Precipitaciones Viento Presión Humedad
00:00 -1°C° 0 mm 3 mps 750 mmHg 84%
01:00 -1°C° 0 mm 3 mps 750 mmHg 83%
02:00 -2°C° 0 mm 3 mps 750 mmHg 84%
03:00 -3°C° 0 mm 4 mps 750 mmHg 84%
04:00 -3°C° 0 mm 4 mps 749 mmHg 84%
05:00 -3°C° 0 mm 4 mps 749 mmHg 83%
06:00 -3°C° 0 mm 4 mps 749 mmHg 82%
07:00 -4°C° 0 mm 5 mps 749 mmHg 81%
08:00 -4°C° 0 mm 5 mps 749 mmHg 77%
09:00 -2°C° 0 mm 5 mps 749 mmHg 74%
10:00 -2°C° 0 mm 5 mps 749 mmHg 70%
11:00 -1°C° 0 mm 5 mps 749 mmHg 68%
12:00 -1°C° 0 mm 5 mps 749 mmHg 66%
13:00 0°C° 0 mm 5 mps 749 mmHg 64%
14:00 -1°C° 0 mm 4 mps 749 mmHg 68%
15:00 -2°C° 0 mm 4 mps 749 mmHg 71%
16:00 -1°C° 0 mm 3 mps 749 mmHg 75%
17:00 -2°C° 0 mm 3 mps 749 mmHg 76%
18:00 -2°C° 0 mm 3 mps 750 mmHg 77%
19:00 -2°C° 0 mm 3 mps 750 mmHg 77%
20:00 -2°C° 0 mm 3 mps 750 mmHg 78%
21:00 -2°C° 0 mm 3 mps 750 mmHg 78%
22:00 -2°C° 0 mm 2 mps 750 mmHg 78%
23:00 -2°C° 0 mm 2 mps 750 mmHg 78%

2 Diciembre, Miércoles

Tiempo Temperatura Precipitaciones Viento Presión Humedad
00:00 -2°C° 0 mm 2 mps 750 mmHg 78%
01:00 -3°C° 0 mm 2 mps 750 mmHg 78%
02:00 -3°C° 0 mm 2 mps 750 mmHg 78%
03:00 -3°C° 0 mm 2 mps 750 mmHg 79%
04:00 -3°C° 0 mm 2 mps 750 mmHg 80%
05:00 -3°C° 0 mm 2 mps 750 mmHg 80%
06:00 -3°C° 0 mm 2 mps 750 mmHg 81%
07:00 -3°C° 0 mm 2 mps 750 mmHg 82%
08:00 -3°C° 0 mm 2 mps 750 mmHg 79%
09:00 -3°C° 0 mm 2 mps 750 mmHg 77%
10:00 -2°C° 0 mm 2 mps 750 mmHg 74%
11:00 -2°C° 0 mm 2 mps 749 mmHg 71%
12:00 -1°C° 0 mm 2 mps 749 mmHg 69%
13:00 -1°C° 0 mm 2 mps 748 mmHg 66%
14:00 -1°C° 0 mm 2 mps 748 mmHg 69%
15:00 -2°C° 0 mm 2 mps 748 mmHg 73%
16:00 -4°C° 0 mm 3 mps 748 mmHg 77%
17:00 -4°C° 0 mm 3 mps 747 mmHg 77%
18:00 -4°C° 0 mm 3 mps 747 mmHg 77%
19:00 -4°C° 0 mm 3 mps 747 mmHg 77%
20:00 -4°C° 0 mm 3 mps 747 mmHg 77%
21:00 -4°C° 0 mm 3 mps 747 mmHg 77%
22:00 -4°C° 0 mm 3 mps 747 mmHg 77%
23:00 -4°C° 0 mm 3 mps 747 mmHg 76%

3 Diciembre, Jueves

Tiempo Temperatura Precipitaciones Viento Presión Humedad
00:00 -4°C° 0 mm 3 mps 746 mmHg 75%
01:00 -4°C° 0 mm 3 mps 746 mmHg 74%
02:00 -4°C° 0 mm 3 mps 746 mmHg 73%
03:00 -4°C° 0 mm 3 mps 746 mmHg 72%
04:00 -4°C° 0 mm 3 mps 745 mmHg 72%
05:00 -4°C° 0 mm 3 mps 745 mmHg 71%
06:00 -4°C° 0 mm 3 mps 745 mmHg 70%
07:00 -4°C° 0 mm 3 mps 744 mmHg 70%
08:00 -2°C° 0 mm 3 mps 744 mmHg 66%
09:00 -2°C° 0 mm 3 mps 744 mmHg 62%
10:00 -1°C° 0 mm 3 mps 744 mmHg 58%
11:00 -1°C° 0 mm 3 mps 744 mmHg 57%
12:00 0°C° 0 mm 3 mps 743 mmHg 55%
13:00 0°C° 0 mm 3 mps 743 mmHg 54%
14:00 0°C° 0 mm 3 mps 742 mmHg 55%
15:00 -1°C° 0 mm 3 mps 742 mmHg 57%
16:00 -1°C° 0 mm 3 mps 742 mmHg 58%
17:00 -1°C° 0 mm 3 mps 742 mmHg 58%
18:00 -1°C° 0 mm 3 mps 742 mmHg 59%
19:00 -1°C° 0 mm 3 mps 741 mmHg 59%
20:00 -1°C° 0 mm 3 mps 741 mmHg 61%
21:00 -1°C° 0 mm 3 mps 741 mmHg 62%
22:00 -2°C° 0 mm 4 mps 740 mmHg 64%
23:00 -2°C° 0 mm 4 mps 740 mmHg 65%

4 Diciembre, Viernes

Tiempo Temperatura Precipitaciones Viento Presión Humedad
00:00 -1°C° 0 mm 3 mps 740 mmHg 66%
01:00 -1°C° 0 mm 3 mps 739 mmHg 67%
02:00 -1°C° 0 mm 3 mps 739 mmHg 68%
03:00 -2°C° 0 mm 4 mps 738 mmHg 69%
04:00 -2°C° 0 mm 4 mps 738 mmHg 70%
05:00 -1°C° 0 mm 4 mps 738 mmHg 71%
06:00 -1°C° 0 mm 4 mps 738 mmHg 72%
07:00 -1°C° 0 mm 4 mps 738 mmHg 73%
08:00 -1°C° 0 mm 4 mps 738 mmHg 72%
09:00 +1°C° 0 mm 3 mps 738 mmHg 70%
10:00 +2°C° 0 mm 3 mps 738 mmHg 69%
11:00 +2°C° 0 mm 3 mps 738 mmHg 69%
12:00 +3°C° 0 mm 3 mps 738 mmHg 70%
13:00 +3°C° 0 mm 3 mps 737 mmHg 70%
14:00 +2°C° 0 mm 3 mps 737 mmHg 72%
15:00 0°C° 0 mm 4 mps 737 mmHg 75%
16:00 0°C° 0 mm 4 mps 737 mmHg 77%
17:00 0°C° 0 mm 4 mps 737 mmHg 78%
18:00 0°C° 0 mm 4 mps 737 mmHg 79%
19:00 0°C° 0 mm 5 mps 737 mmHg 80%
20:00 0°C° 0 mm 5 mps 737 mmHg 80%
21:00 0°C° 0 mm 5 mps 737 mmHg 81%
22:00 0°C° 0 mm 5 mps 737 mmHg 81%
23:00 0°C° 0 mm 5 mps 737 mmHg 81%
Mostrar más

Necesitamos Su Consentimiento

Meteoprog y nuestros Proveedores de Servicios pueden almacenar y acceder a sus datos personales como cookies, identificadores de dispositivo u otras tecnologías similares de su dispositivo y procesar dichos datos para personalizar contenido y anuncios, además de ofrecer funciones de redes sociales y analizar el tráfico.

  • Almacenar y/o acceder a información en su dispositivo

    Se puede almacenar o acceder a cookies, identificadores de dispositivo u otra información de su dispositivo para los fines anteriormente indicados.

  • Anuncios y contenido personalizados, medición de anuncios y contenido, percepciones del público, y desarrollo de productos

    Los anuncios y el contenido pueden personalizarse en base a su perfil. Se pueden añadir más datos para personalizar mejor los anuncios y contenidos. Se puede medir el rendimiento de los anuncios y contenidos. Se puede obtener la percepción sobre el público que ha visto los anuncios y contenidos. Dichos datos pueden usarse para desarrollar o mejorar la experiencia del usuario, sistemas y software.

Al hacer clic en ‘Estoy De Acuerdo’ usted permitirá el uso de las cookies, identificadores de dispositivo, balizas web u otras tecnologías similares indicadas. Su configuración puede cambiarse desde el navegador de su dispositivo.

Para ciertos fines, los intereses legítimos pueden ser considerados por encima del consentimiento. Puede leer más sobre ello en nuestra Política de Privacidad y Cookies.